[[{"header":{"parameterUnit":"m.s-1","parameterCategory":1,"la1":30.2991,"la2":30.254,"lo1":-89.0895,"lo2":-89.0444,"dy":0.0017,"dx":0.0017,"nx":28,"ny":28,"refTime":"2024-07-11T09:00:00:Z","depth":0,"parameterNumber":2,"parameterNumberName":"U-component_of_WINDS"},"data":[0,0,0,0,0,0,0,0,0,0,0,0,0,0,0,0,0,0,0,0,0,0,0,0,0,0,0,0,0,0,0,0,0,0,0,0,0,0,0,0,0,0,0,0,0,0,0,0,0,0,0,0,0,0,0,0,0,0,2.7092,2.7093,0,2.7196,2.7197,2.7198,2.7176,2.7174,2.7172,2.717,2.7283,2.7288,2.7292,0,0,0,0,0,0,0,0,0,0,0,0,0,2.6879,2.6883,2.7092,2.7093,2.7095,2.7196,2.7197,2.7199,2.7176,2.7174,2.7172,2.7169,2.7281,2.7287,2.7293,0,0,0,0,0,0,0,0,0,0,0,0,0,2.6976,2.6885,2.7092,2.7096,2.7097,2.7196,2.7197,2.7199,2.7177,2.7174,2.7171,2.7168,2.7279,2.7286,2.7294,2.7397,0,0,2.7316,2.7319,0,0,0,0,0,0,0,0,2.6971,2.6984,2.7094,2.7095,2.7097,2.717,2.7163,2.7266,2.7178,2.7147,2.717,2.7167,2.7248,2.7258,2.7284,2.7402,2.7407,2.7316,2.7321,2.7324,2.7326,0,0,0,0,0,0,0,2.6964,2.698,2.7133,2.7095,2.7097,2.7094,2.7104,2.7183,2.7213,2.7149,2.7148,2.716,2.7249,2.7277,2.7286,2.7409,2.7316,2.7323,2.7327,2.733,2.7616,2.7619,0,0,0,0,0,0,2.6955,2.6974,2.713,2.7136,2.7025,2.71,2.7112,2.715,2.7212,2.7218,2.7162,2.7159,2.7266,2.7278,2.729,2.7414,2.7324,2.7331,2.7335,2.7613,2.7617,2.762,0,0,0,0,0,0,2.6951,2.6969,2.7126,2.7055,2.7075,2.7107,2.7149,2.7153,2.7181,2.7222,2.7228,2.7186,2.7264,2.728,2.737,2.7418,2.7334,2.734,2.7609,2.7614,2.7618,2.7664,0,0,0,0,0,0,2.6945,2.6968,2.7006,2.7056,2.7078,2.7202,2.7152,2.7157,2.7193,2.7189,2.7245,2.7252,2.7263,2.7359,2.7377,2.7426,2.7346,2.7605,2.7611,2.7617,2.7658,2.7669,2.7679,0,0,0,0,0,2.6937,2.7016,2.7008,2.7027,2.7127,2.7205,2.7218,2.7228,2.7197,2.7237,2.7262,2.725,2.741,2.7368,2.7388,2.7441,2.7602,2.7609,2.7616,2.7653,2.7667,2.7679,0,0,0,0,0,0,2.6974,2.7023,2.7015,2.7112,2.7154,2.7201,2.7251,2.7243,2.7296,2.7291,2.7303,2.7315,2.7407,2.7433,2.7386,2.7543,2.7502,2.7513,2.7523,2.7536,2.7547,2.7538,2.7352,0,0,0,0,0,2.6993,2.7051,2.7091,2.7173,2.7195,2.7219,2.7254,2.7258,2.7303,2.7321,2.7354,2.74,2.746,2.75,2.7558,2.7662,2.7673,2.7708,2.7718,2.7727,2.7737,2.7793,2.7808,2.7644,2.7644,2.7644,0,0,2.7034,2.7068,2.7104,2.7181,2.7215,2.7275,2.7235,2.7301,2.7347,2.7332,2.7418,2.7443,2.7495,2.7592,2.7637,2.7617,2.7784,2.7736,2.7742,2.7748,2.7802,2.7817,2.7831,2.7649,2.7648,2.7648,0,0,2.7138,2.717,2.7241,2.7274,2.7324,2.734,2.7357,2.7405,2.7421,2.7507,2.7497,2.7552,2.7656,2.7693,2.7726,2.7843,2.7834,2.7862,2.7918,2.7972,2.7985,2.7997,2.8038,2.8052,2.7872,2.7872,2.7872,0,2.7183,2.7272,2.7279,2.7346,2.738,2.7368,2.744,2.7473,2.7541,2.7566,2.7542,2.7671,2.7706,2.781,2.7839,2.7866,2.7886,2.7856,2.7982,2.7994,2.8005,2.8044,2.806,2.7875,2.7875,2.7875,2.7874,0,2.7324,2.7387,2.7438,2.7501,2.7541,2.7611,2.763,2.767,2.767,2.7689,2.7777,2.7817,2.7882,2.7908,2.791,2.8013,2.7999,2.7979,2.7937,2.8023,2.806,2.8076,2.788,2.7879,2.7878,2.7877,0,0,2.7455,2.752,2.7538,2.7566,2.762,2.7669,2.7738,2.78,2.7834,2.7881,2.794,2.8027,2.8009,2.8046,2.8052,2.81,2.8189,2.8074,2.8075,2.8093,2.8304,2.8318,2.8335,2.8183,2.8186,2.8188,2.8299,0,2.7564,2.7684,2.7692,2.78,2.7858,2.7846,2.7907,2.7947,2.7966,2.8019,2.8041,2.8102,2.8074,2.8095,2.8142,2.8168,2.8231,2.816,2.8238,2.8241,2.8224,2.8355,2.837,2.8473,2.8314,2.8317,2.8318,0,2.7707,2.7756,2.7869,2.7914,2.7938,2.7992,2.8049,2.8099,2.8145,2.8155,2.8196,2.8195,2.8267,2.8222,2.8322,2.8273,2.8306,2.8323,2.8328,2.8335,2.8284,2.8365,2.8507,2.8522,2.8342,2.834,2.8338,0,2.779,2.7884,2.7964,2.7988,2.8043,2.808,2.8105,2.8148,2.8184,2.8234,2.8258,2.8317,2.8349,2.8395,2.841,2.8377,2.8509,2.8466,2.852,2.852,2.8548,2.8546,2.8696,2.8571,2.8571,2.857,2.857,0,2.791,2.798,2.8002,2.8051,2.8129,2.8138,2.8215,2.8238,2.8276,2.833,2.8325,2.8376,2.8393,2.8448,2.8461,2.8541,2.8556,2.8567,2.8569,2.8567,2.8565,2.8588,2.8581,2.8574,2.8574,2.8573,2.8572,0,2.8016,2.8033,2.8119,2.8163,2.8175,2.8231,2.8269,2.8316,2.8334,2.8403,2.8419,2.8448,2.8512,2.8531,2.8609,2.8618,2.8711,2.8708,2.8695,2.8695,2.8747,2.8741,2.8916,2.8939,2.88,2.8801,2.8802,0,2.8091,2.8144,2.8193,2.8227,2.8253,2.8309,2.8345,2.8357,2.8395,2.845,2.8491,2.8554,2.8604,2.8707,2.8736,2.8795,2.8792,2.8849,2.8801,2.8796,2.8792,2.8788,2.8793,2.8858,2.886,2.8861,2.8862,0,2.8222,2.8228,2.8279,2.8333,2.8376,2.842,2.8462,2.8491,2.8509,2.8552,2.8616,2.8655,2.8733,2.8795,2.8855,2.8882,2.8875,2.8877,2.8892,2.889,2.8879,2.8884,2.8718,2.8873,2.8872,2.8871,2.887,2.887,2.8314,2.836,2.8401,2.8458,2.8491,2.853,2.8576,2.8599,2.8652,2.8714,2.8719,2.8787,2.8831,2.891,2.894,2.8995,2.8979,2.9002,2.9007,2.9012,2.9016,2.8871,2.9007,2.9006,2.9006,2.9006,2.9006,0,2.8444,2.8469,2.8522,2.858,2.8625,2.8613,2.8659,2.8697,2.8757,2.8798,2.8847,2.892,2.898,2.9013,2.9072,2.911,2.9108,2.9125,2.9122,2.9128,2.9028,2.9008,2.9125,2.9125,2.9125,2.9125,2.9125,2.9125,2.8517,2.8593,2.8604,2.8697,2.8722,2.8788,2.8815,2.8851,2.8883,2.8964,2.9013,2.9033,2.9071,2.9133,2.9188,2.9196,2.9218,2.9236,2.9243,2.9148,2.9136,2.9124,2.9105,2.9241,2.9241,2.9338,2.9339,2.934]},{"header":{"parameterUnit":"m.s-1","parameterCategory":1,"la1":30.2991,"la2":30.254,"lo1":-89.0895,"lo2":-89.0444,"dy":0.0017,"dx":0.0017,"nx":28,"ny":28,"refTime":"2024-07-11T09:00:00:Z","depth":0,"parameterNumber":3,"parameterNumberName":"V-component_of_WINDS"},"data":[0,0,0,0,0,0,0,0,0,0,0,0,0,0,0,0,0,0,0,0,0,0,0,0,0,0,0,0,0,0,0,0,0,0,0,0,0,0,0,0,0,0,0,0,0,0,0,0,0,0,0,0,0,0,0,0,0,0,2.9767,2.9768,0,2.9797,2.9798,2.9798,2.9837,2.9837,2.9838,2.9839,2.9865,2.9865,2.9865,0,0,0,0,0,0,0,0,0,0,0,0,0,2.9737,2.9737,2.9767,2.9768,2.9768,2.9797,2.9798,2.9798,2.9837,2.9837,2.9838,2.9839,2.9865,2.9865,2.9865,0,0,0,0,0,0,0,0,0,0,0,0,0,2.9757,2.9737,2.9767,2.9791,2.9793,2.9797,2.9798,2.9798,2.9836,2.9837,2.9838,2.9839,2.9865,2.9865,2.9865,2.9847,0,0,2.9866,2.9866,0,0,0,0,0,0,0,0,2.9755,2.9758,2.9787,2.9789,2.9792,2.9814,2.9797,2.9814,2.9836,2.982,2.9839,2.984,2.9847,2.9849,2.9852,2.9848,2.985,2.9866,2.9866,2.9866,2.9866,0,0,0,0,0,0,0,2.9754,2.9757,2.9779,2.9787,2.979,2.9798,2.9802,2.98,2.9828,2.9821,2.9824,2.9828,2.9849,2.9852,2.9853,2.985,2.9866,2.9866,2.9866,2.9866,2.9829,2.9828,0,0,0,0,0,0,2.975,2.9755,2.9778,2.978,2.9776,2.9798,2.9802,2.9806,2.9828,2.9832,2.9827,2.9829,2.9851,2.9853,2.9854,2.9832,2.9866,2.9866,2.9866,2.983,2.9829,2.9827,0,0,0,0,0,0,2.9749,2.9752,2.9777,2.9768,2.9772,2.9797,2.9801,2.9806,2.981,2.9832,2.9836,2.9825,2.9852,2.9854,2.9848,2.9833,2.9866,2.9866,2.9831,2.9829,2.9828,2.9789,0,0,0,0,0,0,2.9748,2.9751,2.9746,2.9768,2.9773,2.9772,2.9801,2.9806,2.981,2.9814,2.9832,2.9836,2.9853,2.9848,2.9848,2.9834,2.9866,2.9833,2.983,2.9828,2.9791,2.9786,2.9781,0,0,0,0,0,2.9747,2.9734,2.9746,2.9748,2.9767,2.9771,2.9774,2.9795,2.9809,2.9803,2.9817,2.9835,2.9835,2.9847,2.9848,2.9834,2.9834,2.9831,2.9829,2.9794,2.9787,2.9781,0,0,0,0,0,0,2.9709,2.9737,2.9751,2.9745,2.9755,2.9778,2.9771,2.9788,2.9794,2.9796,2.9821,2.9825,2.9815,2.9824,2.9836,2.9815,2.9837,2.9834,2.981,2.9804,2.9799,2.9796,2.9867,0,0,0,0,0,2.97,2.9702,2.9727,2.9719,2.9723,2.9746,2.9749,2.9764,2.9775,2.978,2.9793,2.9802,2.9804,2.9805,2.9808,2.9793,2.9796,2.9784,2.9778,2.9774,2.9771,2.9761,2.9755,2.9819,2.9819,2.9819,0,0,2.9681,2.9697,2.9697,2.9711,2.9721,2.9721,2.975,2.9749,2.9748,2.9779,2.9774,2.9784,2.9795,2.9784,2.978,2.9791,2.9754,2.9771,2.9767,2.9767,2.9758,2.9751,2.9746,2.9818,2.9818,2.9818,0,0,2.9646,2.966,2.9653,2.9663,2.9677,2.9692,2.969,2.971,2.9718,2.9714,2.9736,2.9734,2.9738,2.9744,2.9748,2.9712,2.9728,2.9712,2.9685,2.9675,2.967,2.9665,2.965,2.9644,2.971,2.971,2.971,0,2.9621,2.9623,2.9648,2.9645,2.9649,2.9678,2.967,2.9677,2.9691,2.9693,2.9705,2.9708,2.9718,2.9707,2.9698,2.9701,2.9698,2.971,2.9669,2.9665,2.9661,2.9646,2.9641,2.9707,2.9708,2.9708,2.9708,0,2.9589,2.959,2.9583,2.9597,2.96,2.9595,2.9616,2.9616,2.9631,2.9643,2.9636,2.9649,2.9653,2.9652,2.9666,2.9642,2.9648,2.9665,2.9687,2.9652,2.9639,2.9634,2.9704,2.9705,2.9706,2.9706,0,0,2.9532,2.9558,2.9555,2.956,2.9577,2.9578,2.9572,2.9578,2.9576,2.9584,2.9578,2.9579,2.9593,2.9597,2.9612,2.9603,2.957,2.962,2.9621,2.9608,2.9541,2.9527,2.9521,2.9582,2.9581,2.958,2.9539,0,2.9499,2.9493,2.9513,2.9501,2.95,2.9526,2.952,2.9529,2.954,2.9539,2.9551,2.955,2.9571,2.9572,2.9565,2.9576,2.9557,2.958,2.9573,2.9573,2.9568,2.9514,2.95,2.9461,2.9534,2.9534,2.9533,0,2.946,2.9467,2.9454,2.9469,2.947,2.9465,2.947,2.947,2.9479,2.9487,2.949,2.9507,2.95,2.9521,2.951,2.9525,2.9523,2.9528,2.9527,2.9526,2.955,2.9509,2.945,2.9443,2.9525,2.9526,2.9527,0,2.9417,2.9422,2.9414,2.9418,2.9437,2.9432,2.9439,2.9449,2.945,2.9454,2.9454,2.9457,2.9457,2.9458,2.9473,2.9488,2.9459,2.9483,2.9463,2.9462,2.9455,2.9454,2.9392,2.9457,2.9457,2.9457,2.9457,0,2.9377,2.9367,2.9395,2.939,2.9379,2.9401,2.9389,2.9398,2.9407,2.9402,2.9424,2.9419,2.9441,2.9438,2.945,2.9437,2.9437,2.9442,2.9445,2.9439,2.9438,2.9437,2.9439,2.9456,2.9456,2.9456,2.9456,0,2.9326,2.9344,2.9337,2.9355,2.9359,2.9349,2.9363,2.9358,2.937,2.9363,2.9363,2.9381,2.9377,2.9394,2.9393,2.9401,2.938,2.9389,2.9377,2.9379,2.9358,2.9358,2.929,2.9281,2.9354,2.9354,2.9353,0,2.9298,2.9292,2.9308,2.9307,2.9313,2.9311,2.9312,2.9333,2.9332,2.934,2.9333,2.9332,2.9331,2.9324,2.9335,2.9334,2.9341,2.9318,2.9341,2.9334,2.9338,2.9337,2.9335,2.9312,2.9311,2.931,2.931,0,2.9246,2.9255,2.9257,2.926,2.926,2.9263,2.9268,2.9265,2.9287,2.9285,2.9282,2.9282,2.9281,2.9278,2.9278,2.9283,2.9299,2.9302,2.9297,2.929,2.9282,2.9283,2.9362,2.9304,2.9304,2.9305,2.9305,2.9305,2.9205,2.9199,2.9209,2.9208,2.9214,2.9217,2.9212,2.9223,2.9221,2.9222,2.9234,2.9228,2.9234,2.9236,2.9239,2.9233,2.9244,2.9237,2.9235,2.9233,2.9228,2.9285,2.9234,2.9234,2.9234,2.9234,2.9234,0,2.9152,2.9159,2.9158,2.9164,2.9162,2.9179,2.9184,2.9181,2.9176,2.9181,2.918,2.9174,2.9171,2.9182,2.9179,2.9172,2.9178,2.917,2.917,2.917,2.922,2.9223,2.9164,2.9164,2.9164,2.9164,2.9164,2.9164,2.9124,2.9114,2.9123,2.9114,2.9121,2.9116,2.9117,2.9119,2.9123,2.9116,2.9114,2.9121,2.9127,2.9125,2.9121,2.9124,2.9121,2.9109,2.9114,2.916,2.9167,2.9173,2.9177,2.9109,2.9109,2.9065,2.9064,2.9064]}]]